Regional Weather Roundup
Issued by NWS Northern Indiana

Home | Current Version | Previous Version | Text Only | Print | Product List | Glossary Off
Versions: 1 2 3 4 5 6 7 8 9 10 11 12 13 14 15 16 17 18 19 20 21 22 23 24 25 26 27 28 29 30 31 32 33 34 35 36 37 38 39 40 41 42 43 44 45 46 47 48 49 50

000
ASUS43 KIWX 162300
RWRIWX

KIWX WEATHER ROUNDUP
NATIONAL WEATHER SERVICE NORTHERN INDIANA
700 PM EDT MON OCT 16 2017

NOTE: "FAIR" INDICATES FEW OR NO CLOUDS BELOW 12,000 FEET WITH NO
SIGNIFICANT WEATHER AND/OR OBSTRUCTIONS TO VISIBILITY.

* THESE STATIONS ARE NOT UNDER NWS QUALITY CONTROL. THEY ALSO MAY NOT
  REPORT WEATHER SUCH AS PRECIPITATION OR FOG.

INZ001>027-170000-
NORTHERN INDIANA

CITY           SKY/WX    TMP DP  RH WIND       PRES   REMARKS
GARY*          CLEAR     61  32  33 W7        30.23F
MICHIGAN CITY* CLEAR     54  43  66 CALM      30.24S
SOUTH BEND     CLEAR     56  39  53 CALM      30.25S
ELKHART*       CLEAR     55  37  50 CALM      30.25S
GOSHEN         CLEAR     55  36  48 CALM      30.25S
MONTICELLO*    CLEAR     58  34  41 SW3       30.25F
FORT WAYNE     PTCLDY    54  38  54 CALM      30.27S
PERU/GRISSOM   CLEAR     57  38  49 W3        30.26F

$$
INZ028>050-170000-
CENTRAL INDIANA

CITY           SKY/WX    TMP DP  RH WIND       PRES   REMARKS
LAFAYETTE      CLEAR     58  39  49 SW3       30.26S
KOKOMO*        CLEAR     56  38  50 SW5       30.28S
MUNCIE*        PTCLDY    54  39  57 CALM      30.28S
INDIANAPOLIS   PTCLDY    56  37  49 W5        30.29S

$$
MIZ043>046-050>051-056>058-064>065-071>073-077>080-170000-
SOUTHWEST LOWER MICHIGAN

CITY           SKY/WX    TMP DP  RH WIND       PRES   REMARKS
BATTLE CREEK   CLEAR     52  38  58 W5        30.25S
BENTON HARBOR  CLEAR     55  38  52 S3        30.24S
COLDWATER*     CLEAR     52  37  56 CALM      30.25S
HILLSDALE*     PTCLDY    52  37  58 W3        30.25S
HOLLAND        CLEAR     53  40  61 S5        30.24S
GRAND RAPIDS   PTCLDY    52  39  61 SW10      30.23S
KALAMAZOO      CLEAR     54  34  47 W3        30.25F
STURGIS*       CLEAR     53  38  55 CALM      30.24S
THREE RIVERS*  FAIR      55  36  48 CALM      30.25S

$$
OHZ001>008-015>018-024>025-170000-
NORTHWEST OHIO

CITY           SKY/WX    TMP DP  RH WIND       PRES   REMARKS
DEFIANCE       PTCLDY    52  40  63 CALM      30.26S
FINDLAY        CLOUDY    55  38  52 CALM      30.26S
TOLEDO EXPRESS PTCLDY    54  42  64 W3        30.26S
TOLEDO METCALF PTCLDY    55  39  54 VRB3      30.27S
LIMA           PTCLDY    51  43  74 CALM      30.27S

$$
AND FOR LAKE MICHIGAN COASTAL AND OPEN LAKE BUOY OBSERVATIONS

STATION/POSITION TEMP    WIND        PRES    VSBY  WAVE
                 AIR SEA DIR/SP/G                  HT/PER
                 (F)     (DEG/KT/KT) (MB)    (MI)  (FT/S)
CALUMET HARBOR    61     220/  4/  9 1022.7F
MICHIGAN CITY     59     190/  3/  3   N/A
BURNS HARBOR      62     240/  8/ 10 1024.0S
SAINT JOSEPH      57     210/  8/ 10 1024.0
SOUTH LAKE BUOY   58 62  240/ 10/ 14 1023.3          1/ 6
4 MI NW BRIDGMAN  57 57  200/  6/  8 1024.2F         2/ 4
MICHIGAN CITY     59 58  150/  2/  4   N/A           2/ 6

$$
&&




USA.gov is the U.S. government's official web portal to all federal, state and local government web resources and services.